BEIDOU-3 M12 (C26)

Last updated on Sat Sep 12 2026 00:03:29 GMT+0000 (Coordinated Universal Time)

1 43602U 18067A 26253.82238918 -.00000015 00000+0 00000+0 0 9991 2 43602 54.1788 178.1378 0008684 35.7772 324.2772 1.86227478 54711
UTC large
Height (km)
Speed (km/s)
/
Latitude / Longitude
Inclination (degrees)
Orbital Period (minutes)
Azimuth
Elevation
Range (km)
Doppler Factor

Next 0 passes for location: London (51.5072 / 0.1276)

No passes found over London.
BEIDOU-3 M12 (C26)